Private Wetterstation Sandau
Wetterdaten: Woche 14.01.13 - 20.01.13 (KW3)
Datum Zeit Temp. A. Feuchte A. Luftdruck Regen Wind Richtung Taupunkt Windchill
14.01.2013 00:00 -2,8 C 87 % 1020,4 hPa 0,0 l/m 2,5 km/h (1 Bft) SO -4,7 C -3,2 C
14.01.2013 01:00 -3,6 C 88 % 1020,3 hPa 0,0 l/m 1,8 km/h (1 Bft) O-SO -5,3 C -3,7 C
14.01.2013 02:00 -3,9 C 89 % 1020,1 hPa 0,0 l/m 5,3 km/h (1 Bft) SO -5,5 C -5,7 C
14.01.2013 03:00 -4,0 C 90 % 1019,8 hPa 0,0 l/m 6,5 km/h (2 Bft) O-SO -5,4 C -6,3 C
14.01.2013 04:00 -3,9 C 89 % 1019,3 hPa 0,0 l/m 7,8 km/h (2 Bft) O-SO -5,5 C -7,0 C
14.01.2013 05:00 -4,5 C 89 % 1018,9 hPa 0,0 l/m 8,2 km/h (2 Bft) SO -6,1 C -8,0 C
14.01.2013 06:00 -5,2 C 88 % 1018,9 hPa 0,0 l/m 8,7 km/h (2 Bft) O -6,9 C -8,9 C
14.01.2013 07:00 -5,4 C 87 % 1018,9 hPa 0,0 l/m 9,0 km/h (2 Bft) SO -7,3 C -9,2 C
14.01.2013 08:00 -6,1 C 87 % 1018,7 hPa 0,0 l/m 11,2 km/h (2 Bft) O-SO -7,8 C -10,8 C
14.01.2013 09:00 -6,0 C 87 % 1018,3 hPa 0,0 l/m 9,0 km/h (2 Bft) O-SO -7,8 C -9,7 C
14.01.2013 10:00 -5,3 C 87 % 1017,7 hPa 0,0 l/m 10,9 km/h (2 Bft) O-NO -7,1 C -9,8 C
14.01.2013 11:00 -4,4 C 86 % 1017,1 hPa 0,0 l/m 8,2 km/h (2 Bft) O-NO -6,4 C -7,8 C
14.01.2013 12:00 -3,6 C 85 % 1016,4 hPa 0,0 l/m 7,5 km/h (2 Bft) O -5,7 C -6,4 C
14.01.2013 13:00 -3,6 C 85 % 1015,5 hPa 0,0 l/m 6,0 km/h (2 Bft) SO -5,7 C -5,6 C
14.01.2013 14:00 -3,3 C 84 % 1014,7 hPa 0,0 l/m 5,4 km/h (1 Bft) SO -5,5 C -5,0 C
14.01.2013 15:00 -3,7 C 85 % 1014,5 hPa 0,0 l/m 4,9 km/h (1 Bft) SO -5,8 C -5,0 C
14.01.2013 16:00 -3,8 C 86 % 1014,2 hPa 0,0 l/m 5,0 km/h (1 Bft) SO -5,8 C -5,5 C
14.01.2013 17:00 -3,8 C 86 % 1014,0 hPa 0,0 l/m 4,3 km/h (1 Bft) SO -5,8 C -5,1 C
14.01.2013 18:00 -3,8 C 87 % 1013,8 hPa 0,0 l/m 2,6 km/h (1 Bft) SO -5,6 C -4,2 C
14.01.2013 19:00 -3,7 C 88 % 1013,6 hPa 0,0 l/m 1,6 km/h (1 Bft) SO -5,4 C -3,7 C
14.01.2013 20:00 -3,7 C 88 % 1013,3 hPa 0,0 l/m 0,9 km/h (0 Bft) SO -5,4 C -3,7 C
14.01.2013 21:00 -3,6 C 89 % 1012,9 hPa 0,0 l/m 1,3 km/h (1 Bft) SO -5,2 C -3,8 C
14.01.2013 22:00 -3,6 C 89 % 1012,6 hPa 0,0 l/m 2,1 km/h (1 Bft) SO -5,2 C -3,8 C
14.01.2013 23:00 -3,7 C 89 % 1012,4 hPa 0,0 l/m 0,9 km/h (0 Bft) SO -5,3 C -3,7 C
15.01.2013 00:00 -3,4 C 90 % 1012,2 hPa 0,0 l/m 1,3 km/h (1 Bft) S-SO -4,9 C -3,4 C
15.01.2013 01:00 -3,2 C 89 % 1012,1 hPa 0,0 l/m 2,5 km/h (1 Bft) S-SW -4,7 C -3,6 C
15.01.2013 02:00 -3,2 C 88 % 1012,4 hPa 0,0 l/m 3,3 km/h (1 Bft) S -4,9 C -4,0 C
15.01.2013 03:00 -3,4 C 88 % 1012,3 hPa 0,0 l/m 4,7 km/h (1 Bft) W-SW -5,1 C -4,7 C
15.01.2013 04:00 -4,2 C 88 % 1011,8 hPa 0,0 l/m 0,9 km/h (0 Bft) S-SO -5,9 C -4,2 C
15.01.2013 05:00 -4,7 C 89 % 1011,4 hPa 0,0 l/m 1,6 km/h (1 Bft) SW -6,2 C -4,9 C
15.01.2013 06:00 -4,6 C 90 % 1011,5 hPa 0,0 l/m 1,6 km/h (1 Bft) S-SO -6,0 C -4,8 C
15.01.2013 07:00 -4,9 C 90 % 1011,5 hPa 0,0 l/m 3,3 km/h (1 Bft) S-SO -6,3 C -5,7 C
15.01.2013 08:00 -4,9 C 90 % 1011,5 hPa 0,0 l/m 3,7 km/h (1 Bft) SO -6,2 C -5,8 C
15.01.2013 09:00 -4,6 C 91 % 1011,6 hPa 0,0 l/m 5,4 km/h (1 Bft) SO -5,9 C -6,3 C
15.01.2013 10:00 -4,1 C 90 % 1011,8 hPa 0,0 l/m 2,4 km/h (1 Bft) O-SO -5,6 C -4,5 C
15.01.2013 11:00 -3,4 C 88 % 1011,7 hPa 0,0 l/m 3,6 km/h (1 Bft) SO -5,1 C -4,5 C
15.01.2013 12:00 -3,3 C 87 % 1011,4 hPa 0,0 l/m 5,7 km/h (1 Bft) SO -5,2 C -5,2 C
15.01.2013 13:00 -3,1 C 85 % 1011,0 hPa 0,0 l/m 4,3 km/h (1 Bft) O-SO -5,2 C -4,2 C
15.01.2013 14:00 -3,4 C 85 % 1010,5 hPa 0,0 l/m 5,5 km/h (1 Bft) O-NO -5,5 C -5,0 C
15.01.2013 15:00 -3,9 C 87 % 1010,7 hPa 0,0 l/m 7,7 km/h (2 Bft) O-SO -5,8 C -6,7 C
15.01.2013 16:00 -4,3 C 88 % 1011,2 hPa 0,0 l/m 5,9 km/h (2 Bft) O-SO -6,0 C -6,5 C
15.01.2013 17:00 -4,6 C 88 % 1011,3 hPa 0,0 l/m 3,1 km/h (1 Bft) O-SO -6,2 C -5,1 C
15.01.2013 18:00 -4,7 C 89 % 1011,3 hPa 0,0 l/m 7,8 km/h (2 Bft) O-NO -6,2 C -7,7 C
15.01.2013 19:00 -4,5 C 89 % 1011,3 hPa 0,0 l/m 8,9 km/h (2 Bft) SO -6,0 C -7,8 C
15.01.2013 20:00 -4,1 C 89 % 1011,2 hPa 0,0 l/m 6,1 km/h (2 Bft) O-SO -5,7 C -6,1 C
15.01.2013 21:00 -3,8 C 88 % 1011,0 hPa 0,0 l/m 6,5 km/h (2 Bft) O -5,4 C -6,0 C
15.01.2013 22:00 -3,7 C 88 % 1010,7 hPa 0,0 l/m 4,1 km/h (1 Bft) O-SO -5,3 C -4,9 C
15.01.2013 23:00 -3,7 C 89 % 1010,8 hPa 0,0 l/m 5,5 km/h (1 Bft) O -5,2 C -5,5 C
16.01.2013 00:00 -3,5 C 89 % 1011,0 hPa 0,0 l/m 3,6 km/h (1 Bft) O-SO -5,1 C -4,4 C
16.01.2013 01:00 -3,4 C 89 % 1011,1 hPa 0,0 l/m 4,5 km/h (1 Bft) NO -5,0 C -4,5 C
16.01.2013 02:00 -3,4 C 89 % 1011,0 hPa 0,0 l/m 4,1 km/h (1 Bft) NO -4,9 C -4,8 C
16.01.2013 03:00 -3,4 C 89 % 1011,2 hPa 0,0 l/m 5,1 km/h (1 Bft) O-NO -4,9 C -4,9 C
16.01.2013 04:00 -3,5 C 89 % 1011,1 hPa 0,0 l/m 3,0 km/h (1 Bft) SO -4,9 C -4,2 C
16.01.2013 05:00 -3,5 C 89 % 1011,0 hPa 0,0 l/m 4,9 km/h (1 Bft) O -5,1 C -5,1 C
16.01.2013 06:00 -3,9 C 89 % 1011,0 hPa 0,0 l/m 4,2 km/h (1 Bft) O-NO -5,4 C -5,0 C
16.01.2013 07:00 -4,1 C 89 % 1011,0 hPa 0,0 l/m 4,2 km/h (1 Bft) NO -5,6 C -5,3 C
16.01.2013 08:00 -4,0 C 89 % 1011,6 hPa 0,0 l/m 3,6 km/h (1 Bft) O-NO -5,5 C -4,9 C
16.01.2013 09:00 -3,8 C 88 % 1012,0 hPa 0,0 l/m 5,6 km/h (1 Bft) O-NO -5,5 C -5,8 C
16.01.2013 10:00 -3,6 C 88 % 1012,3 hPa 0,0 l/m 5,0 km/h (1 Bft) O -5,2 C -5,1 C
16.01.2013 11:00 -3,4 C 87 % 1012,5 hPa 0,0 l/m 6,1 km/h (2 Bft) O-NO -5,2 C -5,7 C
16.01.2013 12:00 -3,3 C 87 % 1012,3 hPa 0,0 l/m 4,2 km/h (1 Bft) NO -5,1 C -4,0 C
16.01.2013 13:00 -3,1 C 87 % 1012,1 hPa 0,0 l/m 5,6 km/h (1 Bft) O-NO -4,9 C -4,8 C
16.01.2013 14:00 -2,9 C 87 % 1011,8 hPa 0,0 l/m 3,6 km/h (1 Bft) NO -4,8 C -3,3 C
16.01.2013 15:00 -2,7 C 85 % 1012,0 hPa 0,0 l/m 2,5 km/h (1 Bft) N-NO -4,9 C -3,0 C
16.01.2013 16:00 -2,8 C 85 % 1012,2 hPa 0,0 l/m 3,8 km/h (1 Bft) N -5,0 C -3,5 C
16.01.2013 17:00 -3,1 C 86 % 1012,6 hPa 0,0 l/m 5,2 km/h (1 Bft) N-NO -5,1 C -4,9 C
16.01.2013 18:00 -3,2 C 86 % 1012,8 hPa 0,0 l/m 5,8 km/h (2 Bft) N -5,2 C -5,0 C
16.01.2013 19:00 -3,2 C 87 % 1013,3 hPa 0,0 l/m 4,2 km/h (1 Bft) N-NO -5,0 C -4,2 C
16.01.2013 20:00 -3,2 C 87 % 1013,4 hPa 0,0 l/m 4,4 km/h (1 Bft) N-NO -5,1 C -4,1 C
16.01.2013 21:00 -3,2 C 87 % 1013,5 hPa 0,0 l/m 4,1 km/h (1 Bft) N-NO -5,0 C -3,9 C
16.01.2013 22:00 -2,8 C 88 % 1013,5 hPa 0,0 l/m 3,8 km/h (1 Bft) N -4,5 C -3,5 C
16.01.2013 23:00 -2,4 C 89 % 1013,7 hPa 0,0 l/m 4,3 km/h (1 Bft) N-NO -4,0 C -3,3 C
17.01.2013 00:00 -2,1 C 89 % 1014,1 hPa 0,0 l/m 4,3 km/h (1 Bft) N-NO -3,6 C -2,9 C
17.01.2013 01:00 -1,8 C 89 % 1014,3 hPa 0,0 l/m 6,4 km/h (2 Bft) N -3,4 C -3,9 C
17.01.2013 02:00 -1,7 C 91 % 1014,5 hPa 0,0 l/m 8,8 km/h (2 Bft) N-NO -2,9 C -4,7 C
17.01.2013 03:00 -1,4 C 93 % 1014,4 hPa 0,0 l/m 9,1 km/h (2 Bft) N -2,4 C -4,4 C
17.01.2013 04:00 -1,1 C 93 % 1014,4 hPa 0,0 l/m 8,9 km/h (2 Bft) N -2,1 C -4,2 C
17.01.2013 05:00 -0,7 C 93 % 1014,6 hPa 0,0 l/m 8,4 km/h (2 Bft) N-NO -1,7 C -3,6 C
17.01.2013 06:00 -0,4 C 92 % 1014,8 hPa 0,0 l/m 5,9 km/h (2 Bft) NO -1,5 C -2,2 C
17.01.2013 07:00 -0,2 C 90 % 1015,3 hPa 0,0 l/m 8,0 km/h (2 Bft) N-NO -1,6 C -2,8 C
17.01.2013 08:00 -0,2 C 90 % 1016,2 hPa 0,0 l/m 7,8 km/h (2 Bft) N-NO -1,7 C -2,7 C
17.01.2013 09:00 -0,3 C 90 % 1016,9 hPa 0,0 l/m 5,3 km/h (1 Bft) N-NO -1,7 C -1,5 C
17.01.2013 10:00 -0,2 C 90 % 1017,3 hPa 0,0 l/m 4,9 km/h (1 Bft) NO -1,7 C -1,4 C
17.01.2013 11:00 0,2 C 89 % 1017,4 hPa 0,0 l/m 6,1 km/h (2 Bft) O-NO -1,4 C -1,3 C
17.01.2013 12:00 0,3 C 82 % 1017,6 hPa 0,0 l/m 7,7 km/h (2 Bft) O -2,4 C -2,2 C
17.01.2013 13:00 0,3 C 79 % 1017,6 hPa 0,5 l/m 6,1 km/h (2 Bft) O-NO -2,9 C -1,5 C
17.01.2013 14:00 0,3 C 79 % 1017,8 hPa 0,0 l/m 4,1 km/h (1 Bft) O-NO -2,9 C -0,3 C
17.01.2013 15:00 0,2 C 78 % 1018,2 hPa 0,0 l/m 3,0 km/h (1 Bft) NO -3,2 C -0,3 C
17.01.2013 16:00 -0,1 C 78 % 1018,6 hPa 0,0 l/m 1,8 km/h (1 Bft) N-NO -3,4 C -0,1 C
17.01.2013 17:00 -0,2 C 79 % 1018,9 hPa 0,0 l/m 5,0 km/h (1 Bft) N-NO -3,4 C -1,5 C
17.01.2013 18:00 -0,5 C 81 % 1019,0 hPa 0,0 l/m 4,6 km/h (1 Bft) N-NO -3,3 C -1,8 C
17.01.2013 19:00 -0,5 C 84 % 1019,1 hPa 0,0 l/m 4,8 km/h (1 Bft) N -2,9 C -1,5 C
17.01.2013 20:00 -0,5 C 86 % 1019,1 hPa 0,0 l/m 4,8 km/h (1 Bft) N -2,6 C -1,6 C
17.01.2013 21:00 -0,5 C 88 % 1019,2 hPa 0,0 l/m 5,9 km/h (2 Bft) N-NO -2,3 C -2,2 C
17.01.2013 22:00 -0,3 C 88 % 1019,1 hPa 0,0 l/m 5,6 km/h (1 Bft) O-NO -2,0 C -1,8 C
17.01.2013 23:00 -0,3 C 88 % 1019,0 hPa 0,0 l/m 1,7 km/h (1 Bft) NO -2,0 C -0,3 C
18.01.2013 00:00 -0,4 C 89 % 1018,9 hPa 0,0 l/m 2,3 km/h (1 Bft) N-NO -1,9 C -0,6 C
18.01.2013 01:00 -0,5 C 90 % 1018,4 hPa 0,0 l/m 1,7 km/h (1 Bft) O-NO -1,8 C -0,5 C
18.01.2013 02:00 -0,6 C 90 % 1018,1 hPa 0,0 l/m 3,3 km/h (1 Bft) N-NO -2,0 C -1,1 C
18.01.2013 03:00 -0,7 C 87 % 1017,6 hPa 0,0 l/m 6,9 km/h (2 Bft) O-NO -2,6 C -3,0 C
18.01.2013 04:00 -0,8 C 86 % 1017,2 hPa 0,0 l/m 7,2 km/h (2 Bft) O-NO -2,9 C -3,0 C
18.01.2013 05:00 -1,1 C 86 % 1016,8 hPa 0,0 l/m 4,7 km/h (1 Bft) NO -3,2 C -1,9 C
18.01.2013 06:00 -1,3 C 86 % 1016,7 hPa 0,0 l/m 4,0 km/h (1 Bft) O -3,5 C -2,1 C
18.01.2013 07:00 -1,5 C 86 % 1016,5 hPa 0,0 l/m 4,6 km/h (1 Bft) O-SO -3,5 C -2,5 C
18.01.2013 08:00 -1,6 C 86 % 1016,6 hPa 0,0 l/m 4,3 km/h (1 Bft) O-SO -3,7 C -2,7 C
18.01.2013 09:00 -1,6 C 85 % 1016,5 hPa 0,0 l/m 6,3 km/h (2 Bft) O-NO -3,8 C -3,3 C
18.01.2013 10:00 -1,9 C 85 % 1016,2 hPa 0,0 l/m 6,4 km/h (2 Bft) O-SO -4,1 C -3,8 C
18.01.2013 11:00 -1,9 C 85 % 1015,5 hPa 0,0 l/m 7,6 km/h (2 Bft) O-SO -4,1 C -4,4 C
18.01.2013 12:00 -1,9 C 84 % 1014,9 hPa 0,0 l/m 7,1 km/h (2 Bft) O-SO -4,3 C -4,3 C
18.01.2013 13:00 -1,9 C 82 % 1014,2 hPa 0,0 l/m 5,7 km/h (1 Bft) O-SO -4,5 C -3,9 C
18.01.2013 14:00 -2,1 C 82 % 1013,9 hPa 0,0 l/m 6,2 km/h (2 Bft) SO -4,7 C -4,3 C
18.01.2013 15:00 -2,2 C 82 % 1013,7 hPa 0,0 l/m 7,2 km/h (2 Bft) O-SO -4,8 C -4,5 C
18.01.2013 16:00 -2,4 C 82 % 1013,2 hPa 0,0 l/m 3,6 km/h (1 Bft) O-SO -5,0 C -3,3 C
18.01.2013 17:00 -2,5 C 81 % 1012,8 hPa 0,0 l/m 5,2 km/h (1 Bft) O-NO -5,4 C -4,1 C
18.01.2013 18:00 -2,4 C 80 % 1012,5 hPa 0,0 l/m 6,0 km/h (2 Bft) O-NO -5,4 C -4,7 C
18.01.2013 19:00 -2,4 C 79 % 1012,0 hPa 0,0 l/m 8,7 km/h (2 Bft) O-SO -5,5 C -5,6 C
18.01.2013 20:00 -2,5 C 79 % 1011,7 hPa 0,0 l/m 8,1 km/h (2 Bft) SO -5,7 C -5,2 C
18.01.2013 21:00 -2,7 C 78 % 1011,4 hPa 0,0 l/m 8,3 km/h (2 Bft) O-SO -6,0 C -5,6 C
18.01.2013 22:00 -2,7 C 78 % 1010,9 hPa 0,0 l/m 7,9 km/h (2 Bft) O-SO -6,0 C -5,7 C
18.01.2013 23:00 -2,7 C 77 % 1010,3 hPa 0,0 l/m 8,3 km/h (2 Bft) O-SO -6,2 C -5,6 C
19.01.2013 00:00 -2,7 C 77 % 1009,7 hPa 0,0 l/m 8,1 km/h (2 Bft) O -6,2 C -5,4 C
19.01.2013 01:00 -3,1 C 76 % 1009,1 hPa 0,0 l/m 12,0 km/h (2 Bft) O-NO -6,7 C -7,5 C
19.01.2013 02:00 -3,5 C 77 % 1008,8 hPa 0,0 l/m 10,9 km/h (2 Bft) O-NO -7,0 C -7,4 C
19.01.2013 03:00 -4,1 C 78 % 1008,6 hPa 0,0 l/m 10,7 km/h (2 Bft) O-SO -7,4 C -8,1 C
19.01.2013 04:00 -4,4 C 78 % 1008,1 hPa 0,0 l/m 14,2 km/h (3 Bft) O-SO -7,6 C -9,5 C
19.01.2013 05:00 -4,7 C 80 % 1007,5 hPa 0,0 l/m 10,3 km/h (2 Bft) O -7,7 C -9,0 C
19.01.2013 06:00 -5,0 C 81 % 1007,1 hPa 0,0 l/m 13,2 km/h (3 Bft) SO -7,7 C -10,0 C
19.01.2013 07:00 -5,2 C 82 % 1007,0 hPa 0,0 l/m 9,7 km/h (2 Bft) SO -7,8 C -9,0 C
19.01.2013 08:00 -5,6 C 79 % 1006,9 hPa 0,0 l/m 10,2 km/h (2 Bft) SO -8,6 C -9,5 C
19.01.2013 09:00 -5,6 C 78 % 1006,6 hPa 0,0 l/m 7,3 km/h (2 Bft) O-NO -8,8 C -8,8 C
19.01.2013 10:00 -5,3 C 76 % 1006,5 hPa 0,0 l/m 10,2 km/h (2 Bft) O-SO -8,9 C -9,3 C
19.01.2013 11:00 -4,8 C 74 % 1006,4 hPa 0,0 l/m 9,3 km/h (2 Bft) O-NO -8,8 C -8,7 C
19.01.2013 12:00 -4,7 C 73 % 1006,0 hPa 0,0 l/m 8,6 km/h (2 Bft) O-SO -8,8 C -7,6 C
19.01.2013 13:00 -5,0 C 74 % 1005,8 hPa 0,0 l/m 9,0 km/h (2 Bft) O -8,9 C -8,8 C
19.01.2013 14:00 -5,3 C 74 % 1005,5 hPa 0,0 l/m 8,7 km/h (2 Bft) O -9,2 C -9,0 C
19.01.2013 15:00 -5,4 C 74 % 1005,4 hPa 0,0 l/m 7,1 km/h (2 Bft) O-SO -9,2 C -8,1 C
19.01.2013 16:00 -5,6 C 77 % 1005,2 hPa 0,0 l/m 7,0 km/h (2 Bft) O-NO -9,0 C -8,4 C
19.01.2013 17:00 -6,0 C 76 % 1005,2 hPa 0,0 l/m 7,2 km/h (2 Bft) O-NO -9,5 C -8,8 C
19.01.2013 18:00 -6,6 C 77 % 1005,1 hPa 0,0 l/m 3,7 km/h (1 Bft) O-NO -10,0 C -7,8 C
19.01.2013 19:00 -7,1 C 79 % 1005,2 hPa 0,0 l/m 3,5 km/h (1 Bft) O-NO -10,0 C -7,7 C
19.01.2013 20:00 -7,5 C 81 % 1005,6 hPa 0,0 l/m 1,1 km/h (1 Bft) NO -10,2 C -7,5 C
19.01.2013 21:00 -8,0 C 82 % 1005,6 hPa 0,0 l/m 2,1 km/h (1 Bft) O-NO -10,5 C -8,2 C
19.01.2013 22:00 -8,3 C 83 % 1005,6 hPa 0,0 l/m 2,1 km/h (1 Bft) NO -10,6 C -8,5 C
19.01.2013 23:00 -8,5 C 84 % 1005,6 hPa 0,0 l/m 1,1 km/h (1 Bft) NO -10,7 C -8,5 C
20.01.2013 00:00 -8,5 C 85 % 1005,2 hPa 0,0 l/m 2,5 km/h (1 Bft) NO -10,6 C -8,9 C
20.01.2013 01:00 -8,6 C 85 % 1005,0 hPa 0,0 l/m 1,7 km/h (1 Bft) O-NO -10,6 C -8,6 C
20.01.2013 02:00 -8,9 C 86 % 1004,8 hPa 0,0 l/m 1,6 km/h (1 Bft) NO -10,8 C -8,9 C
20.01.2013 03:00 -8,7 C 86 % 1004,6 hPa 0,0 l/m 2,0 km/h (1 Bft) O-NO -10,6 C -8,9 C
20.01.2013 04:00 -7,5 C 87 % 1004,4 hPa 0,0 l/m 2,7 km/h (1 Bft) O-NO -9,3 C -8,2 C
20.01.2013 05:00 -7,9 C 86 % 1004,2 hPa 0,0 l/m 1,6 km/h (1 Bft) O-NO -9,7 C -7,9 C
20.01.2013 06:00 -8,1 C 87 % 1004,1 hPa 0,0 l/m 1,0 km/h (0 Bft) NO -9,8 C -8,1 C
20.01.2013 07:00 -7,2 C 88 % 1004,1 hPa 0,0 l/m 4,1 km/h (1 Bft) O-NO -8,9 C -8,7 C
20.01.2013 08:00 -6,7 C 88 % 1004,3 hPa 0,0 l/m 4,6 km/h (1 Bft) NO -8,3 C -8,3 C
20.01.2013 09:00 -5,7 C 88 % 1004,6 hPa 0,0 l/m 3,6 km/h (1 Bft) NO -7,4 C -6,4 C
20.01.2013 10:00 -4,6 C 86 % 1004,6 hPa 0,0 l/m 7,0 km/h (2 Bft) O-NO -6,6 C -7,2 C
20.01.2013 11:00 -4,2 C 83 % 1004,3 hPa 0,0 l/m 6,9 km/h (2 Bft) SO -6,5 C -6,8 C
20.01.2013 12:00 -3,8 C 82 % 1003,9 hPa 0,0 l/m 7,7 km/h (2 Bft) O-SO -6,4 C -6,8 C
20.01.2013 13:00 -3,1 C 79 % 1003,0 hPa 0,0 l/m 8,2 km/h (2 Bft) O-NO -6,3 C -6,1 C
20.01.2013 14:00 -3,0 C 78 % 1003,1 hPa 0,0 l/m 6,5 km/h (2 Bft) O -6,3 C -5,6 C
20.01.2013 15:00 -3,1 C 79 % 1003,3 hPa 0,0 l/m 6,2 km/h (2 Bft) O -6,2 C -4,9 C
20.01.2013 16:00 -3,1 C 80 % 1003,1 hPa 0,0 l/m 8,8 km/h (2 Bft) O-NO -6,0 C -6,4 C
20.01.2013 17:00 -3,2 C 81 % 1003,2 hPa 0,0 l/m 9,9 km/h (2 Bft) O-NO -6,0 C -6,7 C
20.01.2013 18:00 -3,5 C 81 % 1003,2 hPa 0,0 l/m 8,3 km/h (2 Bft) O-SO -6,2 C -6,7 C
20.01.2013 19:00 -3,6 C 83 % 1003,8 hPa 0,0 l/m 14,0 km/h (3 Bft) SO -6,0 C -8,4 C
20.01.2013 20:00 -3,5 C 84 % 1004,0 hPa 0,0 l/m 12,1 km/h (2 Bft) O-NO -5,8 C -7,9 C
20.01.2013 21:00 -3,4 C 83 % 1004,1 hPa 0,0 l/m 12,0 km/h (2 Bft) SO -5,8 C -7,7 C
20.01.2013 22:00 -3,6 C 84 % 1003,7 hPa 0,0 l/m 8,3 km/h (2 Bft) O -5,9 C -6,5 C
20.01.2013 23:00 -3,4 C 84 % 1003,5 hPa 0,0 l/m 9,0 km/h (2 Bft) O-SO -5,7 C -6,7 C
Min-Datum _ 20.01.13 19.01.13 20.01.13 - 14.01.13 - 20.01.13 19.01.13
_ Min-Zeit 03:06 12:31 13:36 - 00:01 - 03:06 08:31
Minimum _ -9,1 C 72 % 1002,7 hPa - 0,0 km/h (0 Bft) - -11,0 C -12,7 C
Max-Datum _ 17.01.13 17.01.13 14.01.13 17.01.13 19.01.13 - 17.01.13 17.01.13
_ Max-Zeit 11:51 03:06 00:16 13:46 06:01 - 11:51 11:51
Maximum _ 0,4 C 93 % 1020,5 hPa 0,5 l/m 24,1 km/h
SO (4 Bft)
- -1,2 C 0,4 C
Durchschnitt _ -3,5 C 85 % 1011,8 hPa #0,5 l/m 5,7 km/h (1 Bft) O-NO -5,6 C -5,3 C
(c) by David Heller